DW9007 Weather Reports


Display with metric or nautical units.
time (UTC)temp
F
wind
direction
speed
MPH
gust
MPH
rain 1hr
in
rain 24hr
in
rain mn
in
humidity
%
barometer
mb
20260904100005 75 246 0.0 0.0 0.00 0.00 0.00 93 1013.2
20260904094547 75 246 0.0 0.0 0.00 0.00 0.00 92 1013.2
20260904093045 75 246 0.0 0.0 0.00 0.00 0.00 92 1013.1
20260904091528 75 246 0.0 0.0 0.00 0.00 0.00 92 1013.1
20260904090026 76 246 0.0 0.0 0.00 0.00 0.00 92 1013.2
20260904084510 76 246 0.0 0.0 0.00 0.00 0.00 92 1013.1
20260904083008 76 246 0.0 0.0 0.00 0.00 0.00 92 1013.2
20260904081550 76 246 0.0 0.0 0.00 0.00 0.00 91 1013.1
20260904080047 76 246 0.0 0.0 0.00 0.00 0.00 91 1013.2
20260904074544 77 246 0.0 0.0 0.00 0.00 0.00 91 1013.2
20260904073034 77 246 0.0 0.0 0.00 0.00 0.00 91 1013.2
20260904071509 77 246 0.0 0.0 0.00 0.00 0.00 91 1013.2
20260904070011 77 246 0.0 0.0 0.00 0.00 0.00 91 1013.2
20260904064550 77 246 0.0 0.0 0.00 0.00 0.00 90 1013.2
20260904063055 77 246 0.0 0.0 0.00 0.00 0.00 90 1013.3
20260904061538 77 246 0.0 0.0 0.00 0.00 0.00 89 1013.3
20260904060030 77 246 0.0 0.0 0.00 0.00 0.00 89 1013.3
20260904054515 78 246 0.0 0.0 0.00 0.00 0.00 89 1013.3
20260904053017 78 246 0.0 0.0 0.00 0.00 0.00 88 1013.4
20260904051552 78 246 0.0 0.0 0.00 0.00 0.00 88 1013.4
20260904050052 78 246 0.0 0.0 0.00 0.00 0.00 88 1013.3
20260904044532 79 246 0.0 0.0 0.00 0.00 0.00 87 1013.3
20260904043031 79 246 0.0 0.0 0.00 0.00 0.00 86 1013.4
20260904041514 79 246 0.0 0.0 0.00 0.00 0.00 86 1013.5
20260904040011 79 246 0.0 0.0 0.00 0.00 0.00 85 1013.5
20260904034556 80 246 0.0 0.0 0.00 0.00 0.00 85 1013.5
20260904033050 80 246 0.0 0.0 0.00 0.00 0.00 84 1013.6
20260904031537 81 246 0.0 0.0 0.00 0.00 0.00 82 1013.7
20260904030036 81 246 0.0 0.0 0.00 0.00 0.00 82 1013.7
20260904024534 81 246 0.0 0.0 0.00 0.00 0.00 80 1013.9
20260904023034 82 246 0.0 0.0 0.00 0.00 0.00 79 1013.9
20260904021536 83 246 0.0 0.0 0.00 0.00 0.00 78 1013.8
20260904020027 83 246 0.0 0.0 0.00 0.00 0.00 77 1013.7
20260904014528 84 246 0.0 0.0 0.00 0.00 0.00 75 1013.5
20260904013024 84 246 0.0 0.0 0.00 0.00 0.00 74 1013.4
20260904011501 86 246 0.0 0.0 0.00 0.00 0.00 72 1013.2
20260904010106 87 246 0.0 0.0 0.00 0.00 0.00 70 1012.9
20260904004539 87 246 0.0 0.0 0.00 0.00 0.00 69 1012.9
20260904003037 88 243 0.0 1.0 0.00 0.00 0.00 68 1012.8
20260904001517 88 220 0.0 0.0 0.00 0.00 0.00 67 1012.7
20260904000015 90 215 0.0 0.0 0.00 0.00 0.00 66 1012.5
20260903234552 91 215 0.0 0.0 0.00 0.00 0.00 63 1012.4
20260903233109 92 215 0.0 1.0 0.00 0.00 0.00 62 1012.3
20260903231533 93 237 0.0 0.0 0.00 0.00 0.00 61 1012.2
20260903230033 93 238 0.0 0.0 0.00 0.00 0.00 61 1012.3
20260903224515 92 188 0.0 0.0 0.00 0.00 0.00 62 1012.3
20260903223014 92 188 0.0 0.0 0.00 0.00 0.00 61 1012.2
20260903221614 92 188 0.0 0.0 0.00 0.00 0.00 63 1012.1
20260903220122 92 188 0.0 0.0 0.00 0.00 0.00 61 1012.0
20260903214553 93 188 0.0 0.0 0.00 0.00 0.00 58 1011.9
20260903213032 94 188 0.0 0.0 0.00 0.00 0.00 55 1011.9
20260903211529 95 188 0.0 1.0 0.00 0.00 0.00 54 1011.9
20260903210011 95 106 0.0 4.0 0.00 0.00 0.00 52 1012.0
20260903204510 95 150 0.0 10.0 0.00 0.00 0.00 51 1012.1
20260903203104 96 96 0.0 8.0 0.00 0.00 0.00 51 1012.2
20260903201549 96 108 0.0 5.0 0.00 0.00 0.00 54 1012.6
20260903200035 95 69 0.0 6.0 0.00 0.00 0.00 54 1012.8
20260903194532 95 84 0.0 8.0 0.00 0.00 0.00 54 1013.1
20260903193030 95 108 5.0 9.0 0.00 0.00 0.00 52 1013.3
20260903191527 94 93 0.0 4.0 0.00 0.00 0.00 54 1013.4
20260903190026 94 112 0.0 7.0 0.00 0.00 0.00 56 1013.6
20260903184524 95 49 3.0 6.0 0.00 0.00 0.00 54 1013.7
20260903183023 95 89 1.0 6.0 0.00 0.00 0.00 54 1013.9
20260903181523 94 72 1.0 7.0 0.00 0.00 0.00 55 1014.1
20260903180004 93 238 0.0 4.0 0.00 0.00 0.00 56 1014.2
20260903174504 93 36 2.0 6.0 0.00 0.00 0.00 60 1014.4
20260903173044 93 28 0.0 7.0 0.00 0.00 0.00 63 1014.6
20260903171549 92 104 0.0 7.0 0.00 0.00 0.00 62 1014.8
20260903170036 92 53 0.0 3.0 0.00 0.00 0.00 65 1015.0
20260903164525 92 100 0.0 4.0 0.00 0.00 0.00 65 1015.1
20260903163013 91 30 0.0 4.0 0.00 0.00 0.00 66 1015.4
20260903161508 90 215 0.0 2.0 0.00 0.00 0.00 68 1015.6
20260903160050 89 38 0.0 3.0 0.00 0.00 0.00 71 1015.6
20260903154550 88 81 0.0 0.0 0.00 0.00 0.00 73 1015.8
20260903153031 87 119 0.0 2.0 0.00 0.00 0.00 75 1015.8
20260903151530 85 113 0.0 1.0 0.00 0.00 0.00 78 1015.7
20260903150033 84 113 0.0 0.0 0.00 0.00 0.00 83 1015.6
20260903144522 82 113 0.0 1.0 0.00 0.00 0.00 84 1015.6
20260903143056 81 113 0.0 3.0 0.00 0.00 0.00 87 1015.5
20260903141554 80 115 0.0 0.0 0.00 0.00 0.00 91 1015.4
20260903140043 78 115 0.0 0.0 0.00 0.00 0.00 91 1015.5
20260903134550 78 115 0.0 0.0 0.00 0.00 0.00 93 1015.6
20260903133045 77 115 0.0 0.0 0.00 0.00 0.00 94 1015.7
20260903131541 77 115 0.0 0.0 0.00 0.00 0.00 94 1015.7
20260903130040 76 115 0.0 0.0 0.00 0.00 0.00 95 1015.6
20260903124549 75 115 0.0 0.0 0.00 0.00 0.00 95 1015.4
20260903123038 75 115 0.0 0.0 0.00 0.00 0.00 95 1015.4
20260903121537 74 115 0.0 0.0 0.00 0.00 0.00 94 1015.4
20260903120018 74 115 0.0 0.0 0.00 0.00 0.00 94 1015.4
20260903114519 74 115 0.0 0.0 0.00 0.00 0.00 94 1015.3
20260903113100 74 115 0.0 0.0 0.00 0.00 0.00 93 1015.2
20260903113001 74 115 0.0 0.0 0.00 0.00 0.00 93 1015.2
20260903111600 74 115 0.0 0.0 0.00 0.00 0.00 93 1015.0
20260903110043 74 115 0.0 0.0 0.00 0.00 0.00 93 1014.8
20260903104540 74 115 0.0 0.0 0.00 0.00 0.00 93 1014.8
20260903103024 75 115 0.0 0.0 0.00 0.00 0.00 93 1014.7
20260903101520 75 115 0.0 0.0 0.00 0.00 0.00 93 1014.6